Preview of NWS' New Version of Forecast
This preview is not operational and should not be used for support decisions.

Regional Weather Roundup (RWR)

Issued by National Weather Service (NWS)

                            
000
ASUS43 KLSX 241007
RWRMO 

WEATHER SUMMARY FOR MISSOURI
NATIONAL WEATHER SERVICE SPRINGFIELD MO
500 AM CDT SUN MAR 24 2019

NOTE: "FAIR" INDICATES FEW OR NO CLOUDS BELOW 12,000 FEET WITH NO
       SIGNIFICANT WEATHER AND/OR OBSTRUCTIONS TO VISIBILITY.
       CURRENT SKY AND/OR WEATHER CONDITIONS ARE NOT AVAILABLE FOR
       CHILLICOTHE AND FARMINGTON.

MOZ001>031-035>038-043-044-053-054-241100-
...NORTHERN AND WESTERN MISSOURI...
  
CITY           SKY/WX    TMP DP  RH WIND       PRES   REMARKS
KANSAS CTY INT LGT RAIN  48  45  89 S16       29.94F                  
KANSAS C DTWN  LGT RAIN  50  44  80 W5        29.98R                  
LEE'S SUMMIT   CLOUDY    49  43  80 W3        29.98R                  
ST JOSEPH        N/A    N/A N/A N/A MISG      29.94F                  
CHILLICOTHE      N/A     49  45  86 SE6       29.99F                  
KIRKSVILLE     PTCLDY    45  43  93 SE5       30.01F                  
     
$$
MOZ066>068-077>081-088>096-101>105-241100-
...SOUTHWEST MISSOURI...
  
CITY           SKY/WX    TMP DP  RH WIND       PRES   REMARKS
SPRINGFIELD    CLOUDY    51  47  86 S20G25    29.98S                  
JOPLIN         CLEAR     52  49  89 S16       29.97F                  
BRANSON        CLOUDY    46  46 100 SE12      30.03F FOG              
               
$$
MOZ032>034-039>042-045>050-055>058-069>072-241100-
...CENTRAL MISSOURI...  
  
CITY           SKY/WX    TMP DP  RH WIND       PRES   REMARKS
COLUMBIA       CLOUDY    49  43  80 S13       30.01S                  
JEFFERSON CITY CLOUDY    50  44  80 SE7       30.03S                  
ROLLA          CLOUDY    48  44  86 S18G28    30.03F                  
SEDALIA        CLOUDY    49  45  86 S10       29.98F                  
WARRENSBURG    CLOUDY    46  43  87 S5        29.97S                  
OSAGE BEACH    MOCLDY    50  46  86 S10       30.02S                  
               
$$
MOZ051-052-059>065-241100-
...EAST CENTRAL MISSOURI...
  
CITY           SKY/WX    TMP DP  RH WIND       PRES   REMARKS
ST LOUIS INTL  CLOUDY    46  43  89 SE7       30.08F                  
SPIRIT OF STL  LGT RAIN  48  44  86 NE3       30.07F                  
ST CHARLES     CLOUDY    45  43  93 E7        30.08S                  
                   
$$
MOZ072>076-082>087-097>100-106>115-241100-
...SOUTH CENTRAL AND SOUTHEAST MISSOURI...
  
CITY           SKY/WX    TMP DP  RH WIND       PRES   REMARKS
CAPE GIRARDEAU CLOUDY    50  39  66 SE5       30.10F                  
FARMINGTON     LGT RAIN  47  39  74 S5        30.10R                  
POPLAR BLUFF   CLOUDY    50  43  77 E3        30.08F                  
WEST PLAINS    LGT RAIN  46  44  93 N5        30.09F FOG              
                                       
$$